Location: Villingen
(48.0639°N, 8.4609°E)
Time: 21:07:45
(UTC+01:00)

Tiangong 2 - Pass Details

Date: 28 November 2017
Orbit: 386 x 390 km, 42.8° (Epoch: 12 December)

Event Time Altitude Azimuth Distance (km) Brightness Sun altitude
Exits shadow 05:51:09 - 193° (SSW) 1,813 4.4 -19.4°
Reaches altitude 10° 05:53:12 10° 164° (SSE) 1,415 4.2 -19.1°
Maximum altitude 05:53:55 11° 152° (SSE) 1,384 4.4 -19.0°
Drops below altitude 10° 05:54:37 10° 139° (SE) 1,417 4.7 -18.9°
Sets 05:58:10 0° 97° (E) 2,277 6.7 -18.3°
